Regional Weather Roundup
Issued by NWS Cleveland, OH

Home | Current Version | Previous Version | Text Only | Print | Product List | Glossary Off
Versions: 1 2 3 4 5 6 7 8 9 10 11 12 13 14 15 16 17 18 19 20 21 22 23 24 25 26 27 28 29 30 31 32 33 34 35 36 37 38 39 40 41 42 43 44 45 46 47 48 49 50

396
ASUS41 KCLE 231212
RWRCLE
OHIO REGIONAL WEATHER ROUNDUP
NATIONAL WEATHER SERVICE WILMINGTON, OH
800 AM EDT TUE MAY 23 2017

NOTE: "FAIR" INDICATES FEW OR NO CLOUDS BELOW 12,000 FEET WITH NO
SIGNIFICANT WEATHER AND/OR OBSTRUCTIONS TO VISIBILITY.

OHZ001>008-015>018-024>027-034-035-043-044-231300-
   NORTHWEST OHIO

CITY           SKY/WX    TMP DP  RH WIND       PRES   REMARKS
DEFIANCE       FAIR      57  50  77 S5        29.89S
FINDLAY        FAIR      57  49  74 SE3       29.89F
TOLEDO EXPRESS FAIR      58  50  75 S6        29.89S
TOLEDO EXEC    FAIR      58  51  78 S7        29.90F
LIMA           FAIR      56  50  80 S6        29.89F
$$

OHZ009>014-019>023-028>033-038-089-231300-
   NORTHEAST OHIO

CITY           SKY/WX    TMP DP  RH WIND       PRES   REMARKS
CLE-HOPKINS    PTSUNNY   59  48  67 S5        29.94F
CLE-LAKEFRONT  FAIR      59  46  62 S6        29.91F
CUY CO. ARPT   PTSUNNY   61  48  63 S6        29.93F
LORAIN-ELYRIA  FAIR      54  46  74 S5        29.92F
ASHTABULA      FAIR      55  50  83 S5        29.95S
AKRON-CANTON   PTSUNNY   55  48  77 CALM      29.93F
WOOSTER        FAIR      51  49  92 SE3       29.93F
MANSFIELD      FAIR      56  48  74 CALM      29.92F
YOUNGSTOWN     CLOUDY    53  48  83 E3        29.96R
$$

OHZ042-051>053-060>062-070>072-077>081-231300-
  SOUTHWEST OHIO

CITY           SKY/WX    TMP DP  RH WIND       PRES   REMARKS
CINC-COVINGTON PTSUNNY   57  50  77 E5        29.89F
CINC-LUNKEN    FAIR      53  52  96 CALM      29.91F
HAMILTON       FAIR      55  52  89 CALM      29.91S
DAYTON         PTSUNNY   58  49  72 SE6       29.91S
WRIGHT-PAT AFB FAIR      56  51  83 CALM      29.91R
DAYTON GENERAL FAIR      54  49  83 E3        29.90R
WILMINGTON     FAIR      55  51  86 E5        29.91R
$$

OHZ036-037-039>041-045>050-054>059-063>069-073>076-082>088-231300-
  CENTRAL AND SOUTHEAST OHIO

CITY           SKY/WX    TMP DP  RH WIND       PRES   REMARKS
COLUMBUS       PTSUNNY   57  50  77 CALM      29.91R
OSU AIRPORT    FAIR      55  51  86 CALM      29.92R
BOLTON FIELD   SUNNY     55  52  88 E3        29.92R
RICKENBACK AFB FAIR      53  51  93 CALM      29.93R
NEWARK         FAIR      54  49  83 CALM      29.92R
MARION         FAIR      56  49  77 CALM      29.92S
LANCASTER      FAIR      55  51  86 CALM      29.93R
ZANESVILLE     FAIR      53  48  83 CALM      29.93R
NEW PHILLY     FAIR      52  50  93 CALM      29.93F
$$




USA.gov is the U.S. government's official web portal to all federal, state and local government web resources and services.